[[{"header":{"parameterUnit":"m.s-1","parameterCategory":1,"la1":30.2991,"la2":30.254,"lo1":-89.0895,"lo2":-89.0444,"dy":0.0017,"dx":0.0017,"nx":28,"ny":28,"refTime":"2024-04-26T09:00:00:Z","depth":0,"parameterNumber":2,"parameterNumberName":"U-component_of_WINDS"},"data":[0,0,0,0,0,0,0,0,0,0,0,0,0,0,0,0,0,0,0,0,0,0,0,0,0,0,0,0,0,0,0,0,0,0,0,0,0,0,0,0,0,0,0,0,0,0,0,0,0,0,0,0,0,0,0,0,0,0,-5.3054,-5.3056,0,-5.3233,-5.3235,-5.3237,-5.3217,-5.3214,-5.3211,-5.3208,-5.3394,-5.3401,-5.3408,0,0,0,0,0,0,0,0,0,0,0,0,0,-5.2696,-5.2702,-5.3054,-5.3056,-5.3058,-5.3233,-5.3235,-5.3238,-5.3217,-5.3214,-5.321,-5.3207,-5.3391,-5.34,-5.3409,0,0,0,0,0,0,0,0,0,0,0,0,0,-5.2861,-5.2705,-5.3053,-5.3069,-5.3072,-5.3232,-5.3235,-5.3238,-5.3218,-5.3214,-5.3209,-5.3205,-5.3388,-5.3399,-5.341,-5.3567,0,0,-5.3445,-5.345,0,0,0,0,0,0,0,0,-5.2852,-5.2874,-5.3064,-5.3068,-5.3072,-5.3198,-5.3177,-5.3349,-5.3219,-5.3163,-5.3208,-5.3203,-5.3332,-5.3348,-5.3391,-5.3576,-5.3583,-5.3446,-5.3453,-5.3458,-5.3461,0,0,0,0,0,0,0,-5.284,-5.2866,-5.3125,-5.3067,-5.3072,-5.3068,-5.3087,-5.3209,-5.3269,-5.3167,-5.3166,-5.3188,-5.3333,-5.338,-5.3395,-5.3586,-5.3446,-5.3456,-5.3463,-5.3468,-5.3909,-5.3913,0,0,0,0,0,0,-5.2825,-5.2857,-5.3119,-5.313,-5.2949,-5.3078,-5.3099,-5.3162,-5.3268,-5.328,-5.3191,-5.3186,-5.3363,-5.3382,-5.3402,-5.3591,-5.3458,-5.3469,-5.3475,-5.3904,-5.391,-5.3915,0,0,0,0,0,0,-5.2817,-5.2848,-5.3112,-5.2993,-5.3027,-5.3089,-5.316,-5.3168,-5.3214,-5.3286,-5.3297,-5.3228,-5.336,-5.3386,-5.3526,-5.3597,-5.3474,-5.3484,-5.3898,-5.3906,-5.3912,-5.3971,0,0,0,0,0,0,-5.2807,-5.2845,-5.2905,-5.2995,-5.3033,-5.3232,-5.3164,-5.3175,-5.3234,-5.3229,-5.3323,-5.3335,-5.3359,-5.3509,-5.3537,-5.361,-5.3493,-5.3892,-5.3901,-5.391,-5.3963,-5.398,-5.3994,0,0,0,0,0,-5.2794,-5.2914,-5.2908,-5.294,-5.3108,-5.3236,-5.3258,-5.3283,-5.324,-5.33,-5.3347,-5.3332,-5.3586,-5.3523,-5.3555,-5.3633,-5.3887,-5.3899,-5.3909,-5.3956,-5.3976,-5.3993,0,0,0,0,0,0,-5.2831,-5.2926,-5.292,-5.3073,-5.3147,-5.3233,-5.3309,-5.3304,-5.3391,-5.3383,-5.3411,-5.3433,-5.3574,-5.3618,-5.3547,-5.379,-5.3731,-5.3748,-5.3755,-5.3775,-5.379,-5.3775,-5.3503,0,0,0,0,0,-5.2857,-5.2953,-5.3031,-5.3159,-5.3196,-5.3247,-5.3303,-5.3316,-5.3394,-5.3425,-5.3482,-5.3558,-5.3655,-5.3718,-5.3811,-5.3971,-5.3991,-5.404,-5.4055,-5.4068,-5.4082,-5.4169,-5.4191,-5.3951,-5.3951,-5.3951,0,0,-5.2912,-5.2976,-5.3034,-5.3168,-5.3226,-5.3325,-5.3273,-5.3379,-5.3453,-5.3442,-5.3576,-5.3621,-5.3709,-5.3859,-5.3928,-5.39,-5.4153,-5.4082,-5.4091,-5.4098,-5.4182,-5.4205,-5.4225,-5.3958,-5.3957,-5.3956,0,0,-5.306,-5.3119,-5.3231,-5.3292,-5.3381,-5.3414,-5.3442,-5.3529,-5.3558,-5.3695,-5.3688,-5.3777,-5.3944,-5.4006,-5.4059,-5.4235,-5.4224,-5.4265,-5.4343,-5.4428,-5.4447,-5.4464,-5.4525,-5.4547,-5.428,-5.428,-5.428,0,-5.3116,-5.3264,-5.329,-5.3398,-5.3456,-5.3452,-5.3566,-5.3623,-5.3739,-5.378,-5.3748,-5.3957,-5.4016,-5.418,-5.4223,-5.4267,-5.4299,-5.4252,-5.4442,-5.446,-5.4476,-5.4534,-5.4557,-5.4284,-5.4283,-5.4283,-5.4283,0,-5.3328,-5.3431,-5.3511,-5.3622,-5.3691,-5.3802,-5.3845,-5.3912,-5.392,-5.3957,-5.4096,-5.4167,-5.4274,-5.4315,-5.4324,-5.4482,-5.4461,-5.4436,-5.4376,-5.4502,-5.4557,-5.458,-5.429,-5.4288,-5.4287,-5.4286,0,0,-5.3502,-5.3628,-5.3656,-5.3707,-5.3807,-5.3887,-5.3998,-5.4103,-5.4159,-5.4241,-5.4334,-5.4476,-5.4453,-5.4514,-5.4531,-5.4606,-5.4739,-5.4571,-5.4573,-5.4598,-5.4915,-5.4932,-5.4957,-5.4734,-5.4738,-5.4742,-5.4907,0,-5.3659,-5.3854,-5.3881,-5.4054,-5.4149,-5.4147,-5.4244,-5.4316,-5.4355,-5.4442,-5.4485,-5.4585,-5.4548,-5.4585,-5.4659,-5.4707,-5.4802,-5.4696,-5.482,-5.4824,-5.4795,-5.4986,-5.5004,-5.5156,-5.4929,-5.4933,-5.4936,0,-5.3867,-5.3953,-5.4135,-5.4222,-5.4263,-5.4349,-5.4448,-5.4532,-5.4614,-5.4637,-5.4706,-5.4714,-5.483,-5.4768,-5.4928,-5.4855,-5.4909,-5.494,-5.4947,-5.4957,-5.4885,-5.4999,-5.5206,-5.5227,-5.497,-5.4968,-5.4965,0,-5.3972,-5.4135,-5.4264,-5.4308,-5.4413,-5.4474,-5.4521,-5.46,-5.4661,-5.4748,-5.4788,-5.4889,-5.4943,-5.502,-5.5056,-5.5007,-5.5213,-5.5154,-5.5235,-5.5234,-5.5275,-5.5271,-5.549,-5.5315,-5.5314,-5.5314,-5.5314,0,-5.4143,-5.4253,-5.4313,-5.4392,-5.4517,-5.4549,-5.4671,-5.4717,-5.4787,-5.4876,-5.4882,-5.4965,-5.5008,-5.5098,-5.5127,-5.5255,-5.528,-5.5302,-5.5307,-5.5299,-5.5296,-5.5332,-5.5321,-5.532,-5.5319,-5.5318,-5.5317,0,-5.428,-5.4324,-5.4465,-5.4554,-5.4579,-5.4667,-5.4744,-5.4821,-5.486,-5.4973,-5.5001,-5.5063,-5.5169,-5.5213,-5.5344,-5.5364,-5.5509,-5.5509,-5.5481,-5.5482,-5.5559,-5.555,-5.5806,-5.5841,-5.5645,-5.5647,-5.5648,0,-5.4383,-5.4469,-5.4567,-5.4627,-5.4676,-5.4772,-5.4835,-5.4871,-5.4936,-5.5038,-5.5103,-5.521,-5.5297,-5.5468,-5.5524,-5.5625,-5.5625,-5.5708,-5.564,-5.5629,-5.5623,-5.5616,-5.5625,-5.5719,-5.5721,-5.5723,-5.5724,0,-5.4563,-5.4581,-5.4671,-5.477,-5.4845,-5.4924,-5.5002,-5.5051,-5.5099,-5.5173,-5.5281,-5.5349,-5.5483,-5.5588,-5.5693,-5.5742,-5.5741,-5.5746,-5.5769,-5.576,-5.5739,-5.5749,-5.5512,-5.5739,-5.5737,-5.5736,-5.5735,-5.5735,-5.4685,-5.476,-5.4841,-5.4942,-5.5004,-5.5077,-5.5154,-5.5204,-5.5295,-5.5406,-5.5423,-5.5539,-5.5621,-5.5761,-5.5815,-5.5907,-5.5886,-5.592,-5.5928,-5.5936,-5.5939,-5.5728,-5.5927,-5.5926,-5.5926,-5.5926,-5.5925,0,-5.4862,-5.4915,-5.5007,-5.5115,-5.5195,-5.5188,-5.5275,-5.5341,-5.5443,-5.552,-5.5605,-5.5731,-5.5834,-5.59,-5.6004,-5.6065,-5.6068,-5.6091,-5.6085,-5.6097,-5.5954,-5.5922,-5.6088,-5.6088,-5.6088,-5.6088,-5.6087,-5.6087,-5.4963,-5.509,-5.5118,-5.5277,-5.5329,-5.5443,-5.5492,-5.556,-5.5621,-5.5761,-5.5846,-5.5889,-5.5962,-5.6071,-5.6166,-5.6183,-5.622,-5.6245,-5.626,-5.6124,-5.6107,-5.6091,-5.606,-5.6253,-5.6253,-5.6395,-5.6396,-5.6397]},{"header":{"parameterUnit":"m.s-1","parameterCategory":1,"la1":30.2991,"la2":30.254,"lo1":-89.0895,"lo2":-89.0444,"dy":0.0017,"dx":0.0017,"nx":28,"ny":28,"refTime":"2024-04-26T09:00:00:Z","depth":0,"parameterNumber":3,"parameterNumberName":"V-component_of_WINDS"},"data":[0,0,0,0,0,0,0,0,0,0,0,0,0,0,0,0,0,0,0,0,0,0,0,0,0,0,0,0,0,0,0,0,0,0,0,0,0,0,0,0,0,0,0,0,0,0,0,0,0,0,0,0,0,0,0,0,0,0,3.2111,3.2112,0,3.2146,3.2146,3.2147,3.2106,3.2104,3.2103,3.2101,3.2135,3.2138,3.214,0,0,0,0,0,0,0,0,0,0,0,0,0,3.2011,3.2013,3.2111,3.2112,3.2112,3.2146,3.2146,3.2147,3.2106,3.2104,3.2102,3.21,3.2135,3.2137,3.214,0,0,0,0,0,0,0,0,0,0,0,0,0,3.2051,3.2014,3.2111,3.2096,3.2095,3.2146,3.2146,3.2147,3.2106,3.2104,3.2102,3.21,3.2134,3.2137,3.214,3.2208,0,0,3.2151,3.2153,0,0,0,0,0,0,0,0,3.2049,3.2055,3.2098,3.2097,3.2096,3.2119,3.2123,3.2167,3.2107,3.2102,3.2101,3.2098,3.2132,3.2135,3.2147,3.2209,3.2211,3.2151,3.2154,3.2155,3.2156,0,0,0,0,0,0,0,3.2046,3.2053,3.2125,3.2098,3.2097,3.2088,3.2091,3.2131,3.2129,3.2102,3.2099,3.2104,3.2131,3.2143,3.2147,3.2211,3.2151,3.2154,3.2157,3.2158,3.2333,3.2335,0,0,0,0,0,0,3.2045,3.2051,3.2124,3.2126,3.2066,3.2091,3.2095,3.2114,3.2129,3.2129,3.2106,3.2102,3.2138,3.2143,3.2148,3.2229,3.2155,3.2158,3.216,3.233,3.2333,3.2336,0,0,0,0,0,0,3.2043,3.2052,3.2122,3.2088,3.2096,3.2095,3.2117,3.2116,3.2128,3.2131,3.2131,3.2119,3.2137,3.2143,3.2194,3.2229,3.216,3.2163,3.2327,3.2331,3.2335,3.239,0,0,0,0,0,0,3.204,3.2052,3.2077,3.2089,3.2098,3.2167,3.2119,3.2118,3.2135,3.213,3.2144,3.2144,3.2136,3.2189,3.2197,3.2233,3.2166,3.2324,3.2329,3.2334,3.2385,3.2395,3.2404,0,0,0,0,0,3.2037,3.209,3.2078,3.2087,3.2129,3.2169,3.2175,3.2164,3.2138,3.2163,3.2166,3.2143,3.2224,3.2194,3.2203,3.2241,3.2322,3.2328,3.2333,3.2381,3.2393,3.2404,0,0,0,0,0,0,3.2081,3.2091,3.2078,3.2137,3.2153,3.2162,3.2194,3.2178,3.2201,3.2196,3.2182,3.2185,3.224,3.2245,3.2211,3.2308,3.2269,3.2277,3.2302,3.2314,3.2323,3.232,3.2169,0,0,0,0,0,3.2098,3.213,3.2137,3.2188,3.2197,3.2194,3.2211,3.2202,3.2218,3.2224,3.223,3.2246,3.2276,3.2295,3.2322,3.2386,3.2389,3.2417,3.2426,3.2434,3.2441,3.2477,3.2489,3.2355,3.2355,3.2355,0,0,3.2132,3.2142,3.2162,3.2197,3.2208,3.2242,3.22,3.2237,3.2261,3.223,3.2278,3.2283,3.2301,3.2359,3.2384,3.2365,3.2479,3.2441,3.2447,3.245,3.2484,3.2496,3.2508,3.2359,3.2358,3.2358,0,0,3.2212,3.2222,3.2267,3.228,3.2298,3.2296,3.2307,3.232,3.2323,3.2371,3.2349,3.2379,3.2429,3.2443,3.2456,3.2545,3.2526,3.2554,3.2603,3.2639,3.2649,3.2658,3.2691,3.2702,3.2561,3.2561,3.2561,0,3.2252,3.2302,3.2291,3.2331,3.2347,3.2321,3.2367,3.2379,3.2405,3.2418,3.2396,3.246,3.247,3.2531,3.2553,3.2565,3.2577,3.2552,3.2649,3.2658,3.2666,3.2697,3.2709,3.2564,3.2564,3.2564,3.2563,0,3.2351,3.2386,3.242,3.2447,3.2467,3.2509,3.2506,3.2528,3.2518,3.2519,3.257,3.2581,3.2611,3.2625,3.2615,3.2686,3.2674,3.2651,3.2611,3.2683,3.2711,3.2723,3.2569,3.2568,3.2567,3.2566,0,0,3.2457,3.248,3.2493,3.2505,3.2525,3.2552,3.2594,3.2624,3.2643,3.2663,3.2698,3.2742,3.2722,3.2738,3.2729,3.276,3.2831,3.2734,3.2734,3.2752,3.2911,3.2928,3.2942,3.2819,3.2822,3.2823,3.291,0,3.2538,3.261,3.2603,3.2672,3.2705,3.2683,3.2719,3.2736,3.2739,3.2767,3.277,3.2803,3.2773,3.2782,3.2812,3.2816,3.2863,3.281,3.2852,3.2854,3.2848,3.2957,3.2975,3.3056,3.2921,3.2923,3.2924,0,3.2641,3.2665,3.2738,3.2754,3.2768,3.2801,3.2829,3.2856,3.2875,3.2875,3.2895,3.2882,3.2925,3.2886,3.2945,3.2909,3.2926,3.2931,3.2934,3.2937,3.2893,3.2963,3.3081,3.3094,3.2942,3.294,3.2939,0,3.2712,3.2763,3.2813,3.2825,3.2845,3.2869,3.2879,3.2896,3.2915,3.294,3.2952,3.2981,3.2997,3.3021,3.3017,3.2988,3.3078,3.3038,3.3079,3.308,3.3098,3.3097,3.3221,3.311,3.311,3.311,3.3109,0,3.2802,3.2847,3.2846,3.2877,3.2927,3.292,3.297,3.2977,3.2993,3.3025,3.3008,3.3039,3.3032,3.3063,3.306,3.311,3.3117,3.3119,3.3118,3.3121,3.312,3.3131,3.3125,3.3113,3.3112,3.3111,3.3111,0,3.2889,3.289,3.2944,3.296,3.2965,3.3001,3.3015,3.3045,3.3048,3.3089,3.3098,3.3102,3.3138,3.3137,3.3177,3.3176,3.3238,3.323,3.3231,3.323,3.3272,3.3268,3.3406,3.3425,3.3302,3.3303,3.3304,0,3.2947,3.2981,3.3002,3.3022,3.3034,3.3067,3.3088,3.3082,3.3104,3.313,3.3157,3.3191,3.3218,3.3277,3.3283,3.3315,3.3307,3.3354,3.3312,3.3314,3.3309,3.3307,3.331,3.3362,3.3363,3.3364,3.3365,0,3.3049,3.3048,3.3077,3.3108,3.3133,3.3157,3.3178,3.3196,3.3194,3.3219,3.3256,3.3277,3.332,3.3355,3.3385,3.3395,3.3381,3.3379,3.339,3.3393,3.3393,3.3394,3.3254,3.3375,3.3374,3.3374,3.3373,3.3373,3.3123,3.3153,3.3173,3.3207,3.3223,3.3245,3.3274,3.3281,3.3312,3.3346,3.3342,3.3383,3.3403,3.3443,3.3457,3.3489,3.3473,3.3489,3.3493,3.3497,3.3502,3.3388,3.3495,3.3495,3.3494,3.3494,3.3494,0,3.3224,3.3237,3.3268,3.33,3.3327,3.3312,3.3336,3.336,3.3397,3.3417,3.3445,3.3489,3.3523,3.3533,3.3567,3.3591,3.3585,3.36,3.3598,3.3601,3.3515,3.3502,3.3605,3.3605,3.3605,3.3604,3.3604,3.3604,3.328,3.3331,3.3334,3.3393,3.3405,3.3446,3.3461,3.3481,3.3498,3.3547,3.3576,3.3583,3.36,3.3635,3.3666,3.3668,3.3682,3.3699,3.3699,3.3618,3.3607,3.3596,3.3584,3.3702,3.3702,3.3782,3.3783,3.3784]}]]